Location: Feura Bush
(42.5779°N, 73.8787°W)
Time: 02:36:39
(UTC+00:00)

ACS3 Solar Sail - Pass Details

Date: 17 October 2024
Orbit: 961 x 1022 km, 97.5° (Epoch: 03 November)

Event Time Altitude Azimuth Distance (km) Brightness Sun altitude
Exits shadow 01:56:02 28° 266° (W) 1,824 3.5 -41.1°
Maximum altitude 01:56:12 28° 268° (W) 1,823 3.5 -41.1°
Drops below altitude 10° 02:01:36 10° 326° (NW) 2,832 4.8 -41.9°
Sets 02:04:32 0° 338° (NNW) 3,786 5.5 -42.4°
